Temp
-7 -7 -7 -7 -7 -7 -7 -7 -7 -7 -7 -7 -7 -7 -7 -7 -7 -7 -7 -7 -7 -7 -7 -7 -7 -7 -7 -7 -7 -7 -7 -8 -8 -8 -8 -8 -8 -8 -8 -8 -8 -8 -8
-7 -7 -7 -7 -7 -7 -7 -7 -7 -7 -7 -7 -7 -7 -7 -7 -7 -7 -7 -7 -7 -7 -7 -8 -8 -8 -8 -8 -8 -8 -8 -8 -8 -8 -8 -8 -8 -8 -8 -8 -8 -8 -8
-7 -7 -7 -7 -7 -7 -7 -7 -7 -7 -7 -7 -7 -7 -7 -7 -7 -7 -7 -8 -8 -8 -8 -8 -8 -8 -8 -8 -9 -9 -9 -9 -9 -9 -8 -8 -8 -8 -8 -8 -9 -9 -9
-7 -7 -7 -7 -7 -7 -7 -7 -7 -7 -7 -7 -8 -7 -7 -7 -7 -7 -8 -8 -8 -8 -8 -9 -9 -9 -9 -9 -9 -9 -9 -9 -9 -9 -9 -9 -9 -9 -9 -9 -9 -9 -9
-7 -7 -7 -7 -7 -7 -7 -7 -7 -8 -8 -8 -8 -8 -8 -8 -8 -8 -8 -8 -8 -8 -8 -9 -9 -9 -9 -9 -9 -9 -10 -9 -9 -9 -9 -9 -9 -9 -9 -9 -9 -9 -9
-7 -7 -7 -7 -7 -7 -8 -8 -8 -8 -8 -8 -8 -8 -8 -8 -8 -8 -8 -8 -8 -8 -8 -9 -9 -9 -9 -10 -10 -10 -10 -10 -10 -10 -9 -9 -9 -9 -9 -9 -9 -9 -9
-8 -8 -7 -7 -8 -8 -8 -8 -8 -8 -8 -8 -8 -8 -8 -8 -8 -8 -8 -8 -8 -9 -9 -9 -9 -9 -10 -10 -10 -10 -10 -10 -10 -9 -9 -9 -9 -9 -9 -9 -9 -9 -9
-8 -8 -8 -8 -8 -8 -8 -8 -8 -8 -8 -8 -8 -8 -8 -8 -8 -8 -8 -8 -9 -9 -10 -10 -10 -10 -10 -10 -10 -10 -10 -10 -10 -10 -10 -10 -10 -10 -10 -10 -10 -10 -10
-8 -8 -8 -8 -8 -8 -8 -8 -8 -8 -8 -8 -8 -8 -8 -8 -8 -8 -8 -8 -8 -9 -9 -10 -10 -11 -11 -11 -11 -11 -11 -11 -11 -11 -11 -11 -11 -11 -11 -11 -11 -11 -11
-8 -8 -8 -8 -8 -8 -8 -8 -8 -8 -8 -8 -8 -8 -8 -8 -8 -8 -8 -8 -8 -8 -9 -10 -11 -12 -12 -12 -11 -11 -11 -11 -11 -11 -11 -11 -11 -11 -12 -12 -12 -12 -11
-8 -8 -8 -8 -8 -8 -8 -8 -8 -8 -8 -8 -8 -9 -8 -8 -8 -9 -9 -9 -8 -8 -8 -11 -13 -13 -12 -12 -12 -12 -11 -11 -12 -12 -12 -12 -12 -12 -12 -12 -12 -12 -12
-9 -9 -9 -8 -9 -9 -9 -9 -9 -9 -8 -8 -8 -9 -9 -9 -9 -9 -9 -9 -9 -8 -10 -13 -13 -13 -12 -12 -12 -12 -12 -12 -12 -12 -12 -12 -12 -12 -12 -12 -12 -12 -12
-9 -9 -9 -9 -9 -9 -9 -9 -9 -9 -9 -8 -9 -9 -9 -9 -9 -9 -9 -9 -9 -9 -11 -13 -13 -13 -12 -12 -12 -12 -12 -12 -12 -12 -12 -12 -12 -12 -12 -12 -12 -12 -12
-9 -9 -9 -9 -9 -9 -9 -9 -9 -9 -9 -9 -9 -9 -9 -9 -9 -9 -9 -9 -10 -10 -10 -12 -12 -12 -12 -12 -12 -12 -12 -12 -12 -12 -12 -12 -12 -12 -12 -12 -12 -12 -12
-9 -9 -9 -9 -9 -9 -9 -9 -9 -9 -9 -9 -9 -9 -9 -9 -9 -9 -9 -10 -10 -10 -10 -11 -11 -11 -11 -11 -11 -11 -11 -11 -11 -11 -12 -11 -11 -11 -11 -11 -11 -11 -11
-9 -9 -10 -9 -9 -9 -9 -9 -9 -9 -9 -9 -9 -9 -9 -9 -9 -9 -10 -10 -10 -10 -10 -11 -11 -11 -11 -11 -11 -11 -11 -11 -11 -11 -11 -11 -11 -11 -11 -11 -11 -11 -11
-10 -10 -10 -10 -10 -9 -9 -9 -9 -9 -9 -9 -9 -9 -10 -9 -9 -9 -10 -10 -10 -10 -10 -11 -11 -11 -11 -11 -11 -11 -11 -11 -11 -11 -11 -11 -11 -11 -11 -11 -11 -11 -11
-10 -10 -10 -10 -10 -10 -10 -10 -10 -9 -9 -9 -9 -10 -10 -10 -9 -9 -10 -10 -10 -10 -10 -11 -11 -11 -11 -11 -11 -11 -11 -11 -11 -11 -11 -11 -11 -11 -11 -11 -11 -11 -11
-10 -10 -10 -10 -10 -10 -10 -10 -10 -10 -10 -9 -10 -10 -10 -10 -10 -10 -10 -10 -10 -10 -11 -11 -11 -11 -11 -11 -11 -11 -11 -11 -11 -11 -11 -11 -11 -11 -11 -11 -11 -11 -11
-10 -10 -10 -10 -10 -10 -10 -10 -10 -10 -10 -10 -10 -10 -10 -10 -10 -10 -10 -10 -10 -10 -10 -11 -10 -10 -11 -11 -11 -11 -11 -11 -11 -11 -11 -11 -11 -11 -11 -11 -11 -11 -11
-10 -10 -10 -10 -10 -10 -10 -10 -10 -10 -10 -10 -10 -10 -10 -10 -10 -10 -10 -10 -10 -10 -10 -10 -10 -10 -10 -10 -11 -11 -11 -11 -11 -11 -11 -11 -11 -11 -11 -11 -11 -11 -11
-10 -11 -11 -11 -11 -10 -10 -10 -10 -10 -10 -10 -11 -11 -11 -11 -10 -10 -10 -11 -11 -11 -10 -10 -10 -10 -11 -11 -11 -11 -11 -11 -11 -11 -11 -11 -11 -11 -11 -11 -12 -12 -12
-11 -11 -11 -11 -11 -11 -11 -10 -10 -10 -11 -11 -11 -11 -11 -11 -11 -11 -11 -11 -12 -12 -11 -11 -11 -11 -11 -11 -11 -11 -11 -11 -11 -11 -11 -11 -11 -12 -12 -12 -12 -12 -12
-11 -11 -11 -11 -11 -11 -11 -11 -11 -11 -11 -11 -11 -11 -11 -11 -11 -11 -12 -12 -13 -13 -12 -12 -12 -12 -12 -12 -12 -11 -11 -11 -11 -11 -12 -11 -11 -12 -12 -12 -12 -13 -13
-11 -11 -11 -11 -11 -11 -11 -11 -11 -11 -11 -12 -12 -11 -11 -12 -12 -12 -13 -13 -13 -13 -13 -13 -13 -12 -12 -12 -12 -12 -12 -12 -11 -12 -12 -12 -12 -12 -12 -12 -13 -13 -13
-11 -11 -11 -11 -11 -11 -11 -11 -12 -12 -12 -12 -12 -12 -12 -12 -12 -13 -13 -14 -13 -13 -13 -13 -13 -12 -12 -12 -12 -12 -12 -12 -12 -12 -12 -13 -12 -13 -13 -13 -13 -13 -13
Height
5883 5882 5883 5882 5882 5881 5880 5879 5878 5877 5876 5875 5874 5872 5871 5869 5867 5865 5863 5862 5860 5859 5857 5856 5854 5853 5852 5851 5849 5848 5848 5847 5846 5846 5845 5844 5844 5844 5843 5843 5843 5843 5843
5882 5882 5882 5882 5881 5881 5880 5879 5878 5877 5876 5875 5873 5871 5870 5868 5865 5863 5862 5860 5858 5856 5855 5853 5851 5850 5849 5847 5846 5845 5844 5843 5842 5841 5841 5840 5840 5840 5839 5839 5839 5839 5839
5882 5882 5882 5882 5881 5880 5880 5878 5877 5876 5875 5873 5872 5870 5868 5866 5863 5861 5859 5857 5855 5854 5853 5851 5849 5848 5847 5845 5844 5843 5841 5840 5838 5837 5837 5836 5836 5835 5835 5835 5835 5835 5835
5882 5882 5882 5881 5881 5880 5879 5877 5876 5875 5873 5872 5870 5868 5866 5863 5861 5859 5856 5854 5853 5851 5850 5848 5847 5845 5844 5843 5841 5840 5838 5837 5836 5834 5833 5832 5831 5831 5830 5830 5830 5830 5830
5881 5881 5881 5881 5880 5879 5878 5877 5875 5874 5872 5870 5868 5865 5863 5861 5858 5856 5855 5853 5851 5849 5847 5845 5843 5842 5840 5839 5838 5836 5835 5833 5832 5831 5829 5829 5828 5827 5827 5826 5826 5826 5825
5880 5881 5881 5880 5879 5878 5877 5876 5874 5872 5870 5868 5865 5863 5860 5857 5855 5853 5851 5849 5847 5845 5842 5840 5838 5836 5835 5834 5832 5831 5830 5828 5827 5826 5825 5824 5823 5823 5822 5822 5821 5821 5821
5879 5879 5879 5879 5878 5877 5876 5874 5872 5871 5868 5866 5863 5860 5857 5855 5852 5850 5847 5844 5841 5839 5836 5834 5832 5830 5829 5828 5827 5825 5824 5823 5821 5820 5818 5817 5817 5816 5816 5815 5815 5815 5815
5877 5878 5878 5877 5876 5875 5874 5872 5871 5869 5866 5864 5861 5857 5855 5852 5849 5846 5841 5837 5834 5831 5829 5827 5825 5824 5822 5821 5821 5819 5818 5816 5815 5813 5812 5811 5810 5809 5808 5808 5808 5808 5808
5876 5876 5876 5875 5874 5874 5872 5871 5869 5867 5864 5862 5858 5855 5852 5848 5844 5841 5836 5832 5828 5824 5821 5818 5817 5816 5815 5815 5814 5813 5811 5810 5808 5806 5805 5805 5804 5803 5802 5802 5801 5801 5801
5874 5874 5873 5873 5872 5872 5870 5869 5866 5864 5862 5859 5855 5852 5848 5844 5840 5836 5832 5827 5821 5816 5812 5809 5808 5807 5808 5807 5807 5806 5805 5803 5802 5800 5799 5798 5797 5796 5796 5795 5795 5794 5794
5871 5871 5871 5871 5870 5869 5868 5866 5864 5861 5859 5856 5852 5849 5845 5840 5837 5832 5827 5821 5815 5809 5802 5799 5800 5801 5802 5802 5801 5800 5799 5797 5796 5794 5794 5792 5792 5792 5791 5791 5791 5790 5789
5869 5869 5868 5868 5868 5867 5866 5863 5861 5859 5856 5853 5849 5845 5841 5837 5833 5828 5823 5817 5810 5802 5795 5794 5795 5797 5797 5797 5796 5794 5793 5792 5791 5790 5790 5789 5789 5788 5788 5787 5787 5786 5786
5865 5866 5866 5866 5865 5864 5863 5861 5859 5856 5854 5850 5846 5842 5838 5833 5829 5825 5820 5814 5807 5801 5795 5794 5794 5794 5794 5793 5791 5790 5790 5789 5789 5788 5788 5788 5787 5787 5786 5785 5784 5784 5783
5862 5863 5864 5863 5862 5861 5859 5858 5855 5853 5850 5847 5843 5839 5835 5831 5827 5823 5818 5813 5808 5802 5798 5795 5794 5792 5792 5791 5789 5789 5788 5788 5787 5787 5786 5786 5785 5785 5784 5783 5783 5782 5782
5859 5860 5860 5859 5858 5857 5855 5854 5852 5849 5847 5843 5839 5835 5832 5828 5824 5821 5817 5813 5808 5803 5799 5796 5794 5792 5791 5790 5788 5788 5787 5786 5785 5784 5784 5783 5783 5782 5781 5781 5780 5780 5779
5856 5856 5856 5855 5854 5853 5851 5850 5848 5845 5842 5839 5835 5831 5827 5824 5821 5817 5814 5810 5807 5803 5799 5796 5794 5793 5791 5789 5788 5786 5785 5783 5782 5782 5781 5780 5780 5779 5778 5777 5777 5776 5775
5852 5852 5852 5851 5850 5848 5847 5845 5843 5840 5837 5834 5830 5826 5823 5820 5816 5813 5809 5806 5804 5801 5798 5795 5793 5791 5789 5787 5785 5784 5782 5781 5779 5778 5777 5777 5776 5775 5774 5773 5772 5771 5771
5848 5848 5847 5846 5845 5844 5842 5840 5837 5834 5831 5828 5825 5821 5818 5815 5811 5808 5805 5802 5799 5797 5795 5792 5790 5788 5786 5783 5782 5780 5778 5777 5775 5774 5773 5772 5771 5769 5768 5767 5766 5766 5765
5843 5843 5842 5841 5840 5838 5836 5834 5831 5828 5825 5822 5819 5815 5812 5809 5805 5802 5798 5796 5794 5791 5789 5787 5785 5783 5781 5779 5777 5775 5774 5772 5771 5769 5768 5767 5765 5764 5763 5762 5761 5760 5759
5837 5837 5837 5835 5834 5832 5830 5827 5824 5821 5818 5816 5812 5809 5805 5802 5799 5795 5792 5789 5787 5785 5783 5782 5779 5777 5775 5773 5772 5770 5768 5766 5765 5763 5762 5760 5758 5757 5756 5754 5753 5751 5750
5832 5832 5830 5829 5827 5825 5823 5820 5817 5814 5811 5808 5805 5801 5798 5795 5791 5787 5784 5781 5779 5777 5776 5774 5772 5770 5768 5765 5764 5762 5761 5759 5757 5755 5753 5752 5750 5748 5747 5745 5743 5742 5740
5826 5825 5823 5822 5820 5818 5815 5812 5809 5806 5803 5800 5797 5793 5790 5786 5782 5779 5775 5772 5769 5768 5767 5765 5764 5762 5760 5758 5756 5754 5752 5751 5748 5746 5744 5742 5740 5738 5736 5734 5733 5731 5730
5818 5817 5816 5814 5812 5809 5807 5804 5801 5798 5795 5791 5788 5784 5781 5777 5773 5770 5766 5762 5760 5759 5758 5756 5754 5752 5751 5749 5747 5745 5743 5741 5740 5737 5734 5732 5729 5728 5726 5724 5722 5720 5718
5811 5809 5807 5806 5803 5801 5798 5795 5792 5789 5785 5782 5778 5775 5772 5768 5764 5760 5756 5753 5751 5750 5749 5747 5745 5743 5741 5739 5737 5734 5732 5731 5729 5727 5724 5720 5718 5716 5714 5712 5710 5708 5706
5803 5801 5799 5797 5795 5792 5789 5786 5783 5779 5775 5772 5769 5765 5762 5758 5754 5750 5747 5745 5743 5741 5740 5739 5736 5734 5732 5729 5727 5725 5722 5719 5717 5716 5714 5710 5708 5705 5702 5700 5699 5696 5693
5795 5793 5791 5789 5786 5783 5780 5777 5773 5769 5765 5762 5759 5755 5751 5748 5744 5741 5738 5736 5734 5733 5731 5730 5727 5724 5721 5719 5716 5713 5711 5709 5706 5703 5701 5698 5696 5693 5690 5687 5683 5680 5678
Wind_Speed
2 2 2 4 5 7 8 9 10 11 13 13 15 15 16 16 17 17 17 17 17 17 18 19 20 20 20 21 21 22 22 22 23 23 22 22 22 22 22 22 22 23 24
4 1 1 2 4 6 8 9 10 11 14 16 17 18 18 19 19 19 19 19 19 19 19 19 19 20 21 21 22 22 22 23 24 24 25 25 25 25 25 25 25 24 23
4 2 1 1 3 5 7 9 11 14 16 17 18 21 22 22 21 21 20 19 19 19 19 20 20 20 20 20 20 20 21 21 21 21 23 23 24 26 27 27 27 27 27
6 4 2 2 4 6 8 11 13 15 17 19 22 27 27 25 24 22 21 21 21 21 21 21 21 21 21 21 21 21 22 23 23 23 23 23 22 23 23 24 25 26 27
7 5 3 4 6 8 10 12 15 16 19 22 24 30 29 25 22 22 23 23 24 24 25 25 25 25 24 24 23 23 23 24 24 25 26 26 26 26 25 25 25 25 26
8 6 5 6 8 9 11 13 15 17 20 24 27 32 29 25 24 26 27 28 28 28 28 29 28 28 28 27 26 26 26 26 27 27 28 29 29 29 29 29 28 28 29
9 8 7 7 9 11 13 15 16 19 21 25 30 33 27 25 28 31 32 34 34 33 32 32 32 32 31 30 28 28 28 29 30 31 31 31 30 32 32 32 33 33 33
11 9 8 8 10 12 14 16 19 21 24 27 34 29 26 29 32 36 38 38 37 37 36 36 36 36 35 33 32 30 32 33 33 33 31 29 27 28 29 29 30 31 32
12 10 10 11 12 13 15 18 20 22 24 29 31 28 30 34 38 39 37 38 40 40 39 39 39 39 37 35 33 32 34 32 32 29 28 28 28 28 28 29 29 29 29
14 12 12 12 14 15 17 20 21 23 25 29 33 31 32 36 39 38 39 41 40 40 40 39 40 38 35 32 30 31 32 34 33 29 29 28 26 24 22 21 21 21 24
16 14 14 14 16 16 18 21 22 23 26 30 34 32 34 38 39 38 42 41 40 40 39 36 34 30 28 27 28 28 32 34 28 24 19 17 16 16 17 18 18 18 16
18 16 16 16 17 17 19 21 22 23 26 31 34 32 35 38 38 39 39 37 36 34 26 21 21 20 21 23 27 31 26 17 14 14 13 12 11 10 11 11 11 11 12
18 18 18 17 17 19 21 22 22 24 27 31 33 31 35 38 37 38 36 35 33 26 16 10 11 14 19 23 15 10 12 10 8 8 10 10 9 9 9 9 10 10 10
20 20 20 18 19 21 22 23 23 25 27 30 33 33 35 37 36 35 34 31 28 22 16 12 12 12 8 8 7 7 6 7 8 8 11 12 12 11 10 11 12 11 11
22 22 21 20 21 22 23 24 25 26 28 31 35 36 35 36 35 34 32 28 25 20 15 11 8 8 8 8 8 9 8 9 11 13 14 14 13 9 9 10 12 12 12
24 24 23 22 23 24 26 27 28 29 31 32 36 39 36 34 34 34 31 28 23 21 15 14 12 12 12 12 12 12 13 14 15 17 17 15 14 14 15 15 16 16 16
27 25 24 24 26 27 29 29 30 32 33 34 37 40 38 34 33 34 31 28 25 21 19 16 15 15 16 16 17 18 19 19 20 20 20 20 20 20 21 21 23 23 24
28 27 26 28 30 31 31 32 32 34 35 36 39 41 39 34 34 35 32 30 27 25 23 22 21 20 20 20 21 22 23 24 25 25 25 25 26 26 27 27 28 29 30
30 30 30 31 32 34 34 34 36 36 37 38 41 43 41 36 36 36 33 33 31 28 26 26 26 26 25 25 27 28 29 29 29 29 29 29 30 31 32 33 34 35 34
33 32 33 34 35 36 37 37 38 39 39 41 44 45 42 38 38 38 36 35 34 31 30 30 28 29 31 30 30 30 31 32 32 33 33 33 34 34 35 37 38 38 38
35 36 36 37 38 38 39 40 40 41 42 44 47 48 43 40 40 41 40 37 38 36 35 33 32 32 33 32 31 32 33 34 35 36 36 36 37 38 39 39 40 41 41
37 38 39 39 39 40 41 42 43 43 45 47 48 49 43 41 42 42 42 39 38 38 37 34 33 32 33 33 33 34 34 35 37 38 39 40 41 42 42 44 44 45 45
38 40 40 41 41 42 43 44 44 46 48 50 51 46 44 44 44 44 43 39 38 38 36 34 33 33 33 34 35 35 35 37 38 40 42 42 42 42 43 44 45 46 46
40 41 41 42 43 44 45 46 47 48 50 52 49 45 45 45 46 45 42 39 37 37 37 36 34 32 33 34 36 38 38 38 39 40 41 43 43 43 43 44 45 46 47
41 42 43 44 45 46 47 48 49 50 52 50 47 47 47 46 46 44 40 37 37 37 37 37 35 34 35 36 38 39 41 42 43 42 42 44 45 48 50 50 50 51 51
42 43 44 45 46 48 49 49 50 52 51 50 50 50 48 47 45 42 39 38 38 38 37 38 38 38 39 40 42 43 44 44 45 46 47 48 49 51 53 55 57 56 55
Wind_Direction
190 139 69 39 28 28 26 23 16 10 7 3 357 349 343 338 329 321 314 308 302 297 295 294 292 288 285 283 282 282 282 281 279 277 276 275 274 274 274 273 271 268 265
207 183 53 22 19 17 14 11 2 1 1 354 351 348 343 338 332 324 315 310 306 302 297 292 289 285 284 284 284 282 280 280 280 279 276 274 273 272 271 271 273 273 272
223 223 266 346 359 356 357 352 351 353 351 351 352 347 341 334 329 325 320 313 307 303 299 295 293 292 292 291 289 288 287 286 284 282 280 279 277 274 273 272 270 269 270
229 235 255 310 333 340 341 341 346 346 346 347 351 350 342 334 329 325 322 319 313 309 305 299 295 295 293 290 291 291 291 290 290 288 285 281 279 277 275 274 273 272 269
235 246 270 303 319 327 330 337 340 341 342 341 339 341 338 333 331 328 324 321 317 312 307 302 298 297 294 294 295 297 298 294 291 289 288 287 284 282 278 277 277 277 275
238 251 273 299 311 317 326 334 337 335 337 336 337 335 333 332 331 328 324 320 315 309 302 297 295 293 291 292 294 296 298 297 295 293 290 288 286 283 281 279 277 274 273
236 248 267 292 305 313 326 330 329 333 331 332 332 333 333 335 333 328 324 318 310 301 293 288 286 285 286 287 290 293 296 296 294 292 289 286 285 282 279 277 275 275 274
237 249 269 287 298 310 317 324 326 329 330 331 330 333 336 334 333 329 324 317 310 302 294 287 283 281 281 284 287 291 295 295 296 296 289 285 282 281 279 277 275 274 273
241 252 268 282 294 307 316 321 324 325 329 331 332 332 333 333 333 330 326 320 314 308 298 286 279 279 279 281 284 288 290 298 304 292 288 287 284 284 284 283 280 276 273
242 252 265 278 293 305 316 318 323 322 328 333 332 330 330 331 330 331 326 321 316 309 300 285 276 277 280 283 285 287 294 299 296 290 289 287 287 284 282 281 280 279 273
243 253 264 279 292 305 312 315 320 320 326 328 330 329 330 332 333 331 327 324 320 315 301 283 278 282 286 285 288 293 297 296 291 289 289 287 285 283 281 281 284 286 290
242 253 265 279 290 303 308 314 316 318 326 328 327 327 329 333 335 330 327 329 328 328 314 300 291 289 288 289 291 291 291 288 289 290 291 294 294 293 291 292 290 287 288
247 256 267 278 291 299 308 312 311 314 321 326 326 326 329 334 334 330 330 336 338 339 358 345 310 297 294 292 291 288 290 294 296 297 293 298 299 299 297 290 283 282 282
251 260 271 282 291 299 306 307 306 309 319 323 325 325 329 331 331 327 329 335 337 343 353 347 324 311 305 297 297 292 294 293 299 306 302 302 298 294 286 283 281 284 285
253 262 272 282 289 297 301 301 301 304 312 319 322 322 325 326 324 321 322 329 335 335 338 341 337 322 307 304 300 297 296 298 301 301 299 297 287 279 282 284 283 281 275
257 264 272 281 289 294 297 297 298 301 303 312 317 319 323 321 319 315 313 317 323 324 327 326 322 316 310 306 301 299 296 296 299 299 297 288 275 268 269 273 274 269 266
259 265 272 280 286 290 294 296 300 300 300 307 312 316 320 316 313 312 302 305 307 310 309 309 306 302 300 300 299 299 300 298 294 291 288 282 278 273 272 272 271 271 269
262 267 275 280 284 289 292 294 298 298 298 301 306 312 315 308 308 312 295 293 294 295 295 297 301 303 302 302 300 299 299 298 296 293 288 280 277 276 275 275 275 274 272
265 270 275 280 284 287 290 293 295 296 296 299 303 309 312 305 303 304 298 284 285 285 288 288 291 293 292 295 298 298 297 297 296 294 291 287 283 281 281 281 280 280 279
266 271 275 279 282 286 289 292 294 296 295 297 300 307 308 303 298 300 299 283 278 279 283 288 290 293 295 296 298 299 299 298 297 296 294 292 289 287 286 286 286 286 284
268 272 275 278 282 286 289 291 293 294 294 295 299 306 303 299 295 297 296 288 275 273 280 285 289 290 292 293 296 296 296 296 295 294 293 292 290 288 288 287 286 286 285
270 273 276 280 283 286 288 290 293 292 292 295 301 303 299 296 295 297 296 288 279 272 272 276 282 286 288 291 294 296 298 298 297 295 293 291 289 287 286 285 285 285 285
273 275 279 282 284 286 288 290 291 290 293 298 301 299 296 297 299 299 295 287 279 271 270 272 276 282 286 291 293 294 295 297 295 294 292 289 287 286 285 286 286 285 285
274 277 280 282 284 286 288 289 289 292 295 298 300 295 297 298 298 296 291 283 277 274 274 274 277 282 286 289 292 294 295 294 293 290 288 289 288 287 287 286 286 285 284
276 278 280 281 284 286 287 288 292 294 297 299 296 298 298 298 298 294 287 282 279 278 279 281 282 283 286 289 289 290 292 293 292 288 285 286 285 287 287 285 284 283 282
274 277 280 282 284 285 288 290 293 296 298 296 297 298 298 298 296 289 282 280 280 281 281 281 283 284 286 287 289 291 291 291 290 289 288 286 285 284 284 284 283 282 281